STARLINK-1736, 46585

Orbit data source: Space-Track

STARLINK-1736, 46585 is a payload satellite owned by SpaceX/Seattle (US) in LEO that was launched on Tue, 06 Oct 2020 UTC via an FALCON 9 launch vehicle from the Air Force Eastern Test Range (AFETR). Payload-class satellites include a variety of spacecraft equipped with specific instruments for various scientific and technological missions. These include communications satellites like Starlink; space stations such as the ISS; scientific satellites like the Hubble; Earth observation satellites from companies like Planet Labs, Umbra, and HawkEye 360; GPS; miniature CubeSats for education and research; and military/defense satellites.

Loading next visibility...
Identifier
46585, 2020-070BF
Orbit
LEO
Country
Flag of USUS
Related business
Manufacturer
SpaceX/Seattle
Mission
Partially operational Commercial Communications
Bus & Motor
STARLINK, Unknown motor
Mass
260 kg wet, ~248 kg dry
Launch date (UTC)
2020-10-06 (5 years ago)
Launch vehicle
FALCON 9
Launch site
Air Force Eastern Test Range (AFETR)
Object type
Payload
Rocket body
Debris
Shape & HBR
Box + 1 Pan, 10.1 m
Radar Cross Section
13.562 m², Large (>1 m²)

Expand to show TLE details & history
Last TLE update: 8 hours ago

TLE from 8 hours ago
0 STARLINK-1736
1 46585U 20070BF  26073.32905303  .00118883  00000-0  10542-2 0  9993
2 46585  53.0421  93.1347 0001474  88.5321 271.5863 15.67731189301087
Epoch: 2026-03-14T07:53Z
TLE epoch observation values (Epoch: 2026-03-14T07:53:50.181Z)
Latitude
-0.00006°
Longitude
162.72377°
Altitude
366.269 km
Speed
7.691 km/s
True Right ascension
06h 12m 32s
True Declination
0° 00' 00"
Sunlit
Object was in daylight at epoch
Visualization orbit readout
Latitude
Unknown
Longitude
Unknown
Altitude
Unknown
Speed
Unknown
Apparent Right ascension
Unknown
Apparent Declination
Unknown
Sunlit
N/A
Visualization observer readout
Local Sidereal Time
20:15:54
Azimuth
Unknown
Elevation
Unknown
Doppler factor
Unknown
Orbital elements
Apogee altitude
366.669 km
Perigee altitude
364.681 km
Semi-major axis
6,743.812 km
Eccentricity
0.00015
Inclination
53.0421°
RAAN
93.1347°
Arg. of periapsis
88.5321°
True anomaly
271.56942°
Mean anomaly
271.5863°
Eccentric anomaly
271.57786°
Mean motion
3.91909 °/min
Orbital period
91.86 mins
BSTAR
0.0010542
Loading maneuver chart data...
Computing Atmospheric mass density...

Documentation

Showing up to 5 results
|